Weather in Erdniyevskiy

Russia / Republic of Kalmykia     46°51′55″N   46°16′50″E
temp.,
°C
wind,
m/s
gust,
m/s
humid.,
%
clouds,
%
prec.,
mm/h
press.,
hPa
HPBL,
m
24 october, sun
sun2400:00+13sw4651100 0.0 101888
03:00+13wsw3553100 0.0 101864
06:00+13wsw3352100 0.0 101736
09:00+15w3358100 0.0 1018224
12:00+17nw4457100 0.0 1018705
15:00+14n6663100 0.0 1018597
18:00+14n4659100 0.0 1018516
21:00+13nnw4661100 0.0 1018322
25 october, mon
mon2500:00+12n7941100 0.0 1018523
03:00+10nnw61054100 0.0 1019585
06:00+8nnw6957100 0.0 1020614
09:00+10nnw784320 0.1 1022851
12:00+11nw7842100 0.0 10231467
15:00+10nw8941100 0.0 10241719
18:00+8nnw693741 0.0 1027555
21:00+6nnw5942100 0.0 1029586
26 october, tue
tue2600:00+4nnw48515 0.0 1030270
03:00+2nnw47594 0.0 1031167
06:00+1nnw3566100 0.0 1032122
09:00+4n345571 0.0 1033497
12:00+6nnw33465 0.0 10321136
15:00+8nnw33415 0.0 10311212
18:00+6nnw22470 0.0 103223
21:00+4n22523 0.0 103310
27 october, wed
wed2700:00+3ne11563 0.0 103310
03:00+2e11590 0.0 103210
06:00+2ese22600 0.0 103210
09:00+6se33470 0.0 1033333
12:00+9se44380 0.0 1031898
15:00+10se44330 0.0 10301012
18:00+7se45390 0.0 103064
21:00+6sse48640 0.0 1029173
28 october, thu
thu2800:00+4se46750 0.0 1028118
03:00+4se35840 0.0 102868
06:00+3se45890 0.0 102777
09:00+8se45700 0.0 1028293
12:00+12sse55520 0.0 10261093
15:00+13sse34451 0.0 10251285
18:00+10sse33581 0.0 102528
21:00+9s227339 0.0 102515